QPF
0.00 0.00 0.00 0.00 0.00 0.00 0.00 0.00 0.00 0.00 0.00 0.00 0.00 0.00 0.00 0.00 0.00 0.01 0.02 0.09 0.27 0.35 0.35 0.41 0.43 0.41 0.34 0.21 0.12 0.12 0.20 0.16 0.05 0.01 0.01 0.00 0.00 0.00 0.00 0.00 0.00 0.00 0.00
0.00 0.00 0.00 0.00 0.01 0.00 0.00 0.00 0.00 0.00 0.00 0.00 0.00 0.00 0.00 0.00 0.00 0.00 0.00 0.02 0.09 0.20 0.23 0.31 0.42 0.41 0.36 0.28 0.16 0.11 0.19 0.21 0.10 0.04 0.03 0.01 0.01 0.01 0.00 0.00 0.00 0.00 0.00
0.00 0.00 0.00 0.00 0.01 0.02 0.01 0.00 0.00 0.00 0.00 0.00 0.00 0.00 0.00 0.00 0.00 0.00 0.00 0.00 0.01 0.03 0.10 0.21 0.31 0.35 0.34 0.34 0.28 0.18 0.20 0.28 0.20 0.12 0.07 0.04 0.03 0.01 0.00 0.00 0.00 0.00 0.00
0.01 0.01 0.01 0.00 0.02 0.03 0.02 0.01 0.00 0.00 0.00 0.00 0.00 0.00 0.00 0.00 0.00 0.00 0.00 0.00 0.00 0.00 0.03 0.11 0.25 0.32 0.36 0.47 0.54 0.47 0.39 0.37 0.37 0.32 0.22 0.13 0.09 0.04 0.01 0.00 0.00 0.00 0.00
0.05 0.05 0.03 0.01 0.02 0.02 0.01 0.00 0.00 0.00 0.00 0.00 0.00 0.00 0.00 0.00 0.00 0.00 0.00 0.00 0.01 0.02 0.02 0.08 0.17 0.20 0.27 0.41 0.59 0.67 0.66 0.64 0.61 0.65 0.54 0.38 0.28 0.10 0.01 0.00 0.00 0.00 0.00
0.06 0.08 0.08 0.03 0.03 0.03 0.03 0.01 0.00 0.00 0.00 0.00 0.00 0.00 0.00 0.00 0.00 0.00 0.00 0.00 0.00 0.00 0.01 0.04 0.09 0.08 0.13 0.26 0.39 0.49 0.64 0.82 0.88 1.02 0.95 0.75 0.47 0.15 0.01 0.00 0.00 0.00 0.00
0.03 0.05 0.10 0.05 0.03 0.02 0.04 0.02 0.00 0.00 0.00 0.00 0.00 0.00 0.00 0.00 0.00 0.00 0.00 0.00 0.00 0.00 0.00 0.01 0.04 0.05 0.15 0.28 0.18 0.17 0.32 0.50 0.66 0.88 0.98 0.83 0.41 0.10 0.01 0.00 0.00 0.00 0.00
0.06 0.09 0.11 0.06 0.01 0.01 0.07 0.09 0.02 0.00 0.01 0.02 0.00 0.00 0.00 0.00 0.00 0.00 0.00 0.00 0.00 0.00 0.00 0.00 0.00 0.02 0.11 0.20 0.12 0.12 0.18 0.26 0.31 0.42 0.51 0.42 0.16 0.04 0.01 0.00 0.00 0.00 0.00
0.10 0.16 0.17 0.11 0.04 0.03 0.07 0.08 0.01 0.00 0.01 0.04 0.02 0.00 0.01 0.00 0.00 0.00 0.00 0.00 0.00 0.00 0.00 0.00 0.00 0.01 0.04 0.12 0.17 0.15 0.16 0.17 0.20 0.28 0.35 0.24 0.10 0.03 0.01 0.00 0.00 0.00 0.00
0.14 0.21 0.19 0.15 0.11 0.10 0.08 0.04 0.03 0.02 0.02 0.04 0.01 0.01 0.05 0.04 0.01 0.00 0.00 0.00 0.00 0.00 0.00 0.00 0.00 0.00 0.01 0.03 0.09 0.16 0.18 0.17 0.22 0.37 0.33 0.19 0.09 0.02 0.01 0.00 0.00 0.00 0.00
0.12 0.16 0.16 0.28 0.34 0.24 0.15 0.11 0.08 0.03 0.01 0.01 0.01 0.00 0.03 0.03 0.01 0.00 0.00 0.00 0.00 0.00 0.00 0.00 0.00 0.00 0.00 0.02 0.07 0.18 0.22 0.19 0.25 0.39 0.26 0.11 0.04 0.01 0.00 0.00 0.00 0.00 0.00
0.06 0.11 0.19 0.33 0.34 0.25 0.17 0.11 0.05 0.03 0.01 0.01 0.01 0.00 0.01 0.00 0.00 0.00 0.00 0.00 0.00 0.00 0.00 0.00 0.00 0.00 0.00 0.02 0.08 0.16 0.17 0.16 0.20 0.22 0.11 0.04 0.02 0.01 0.00 0.00 0.00 0.00 0.00
0.08 0.10 0.16 0.19 0.18 0.15 0.15 0.13 0.07 0.04 0.02 0.00 0.01 0.01 0.01 0.00 0.00 0.00 0.00 0.00 0.00 0.00 0.00 0.00 0.00 0.00 0.00 0.01 0.05 0.07 0.06 0.06 0.07 0.06 0.03 0.01 0.00 0.00 0.00 0.00 0.00 0.00 0.00
0.08 0.07 0.09 0.07 0.05 0.04 0.04 0.08 0.08 0.05 0.02 0.00 0.00 0.01 0.01 0.01 0.01 0.03 0.03 0.02 0.01 0.00 0.00 0.00 0.00 0.00 0.00 0.00 0.01 0.02 0.01 0.01 0.02 0.01 0.01 0.00 0.00 0.00 0.00 0.00 0.00 0.00 0.00
0.05 0.04 0.06 0.06 0.04 0.02 0.01 0.02 0.04 0.03 0.02 0.01 0.00 0.01 0.04 0.07 0.04 0.07 0.07 0.02 0.01 0.00 0.00 0.02 0.01 0.00 0.00 0.00 0.00 0.00 0.00 0.00 0.00 0.00 0.00 0.00 0.00 0.00 0.00 0.00 0.00 0.00 0.00
0.04 0.03 0.02 0.02 0.01 0.01 0.00 0.00 0.00 0.00 0.01 0.01 0.02 0.03 0.07 0.14 0.09 0.09 0.08 0.05 0.03 0.01 0.01 0.05 0.04 0.02 0.00 0.00 0.00 0.00 0.00 0.00 0.00 0.00 0.00 0.00 0.00 0.00 0.00 0.00 0.00 0.00 0.00
0.01 0.00 0.00 0.00 0.00 0.00 0.00 0.00 0.00 0.00 0.00 0.01 0.03 0.06 0.10 0.15 0.14 0.09 0.07 0.07 0.08 0.06 0.03 0.05 0.05 0.03 0.00 0.00 0.00 0.00 0.00 0.00 0.00 0.00 0.00 0.00 0.00 0.00 0.00 0.00 0.00 0.00 0.00
0.00 0.00 0.00 0.00 0.00 0.00 0.00 0.00 0.00 0.00 0.00 0.00 0.03 0.08 0.12 0.15 0.16 0.15 0.10 0.08 0.12 0.11 0.07 0.04 0.05 0.05 0.01 0.00 0.00 0.00 0.00 0.00 0.00 0.00 0.00 0.00 0.00 0.00 0.00 0.00 0.00 0.00 0.00
0.00 0.00 0.00 0.00 0.00 0.00 0.00 0.00 0.00 0.00 0.01 0.01 0.02 0.06 0.08 0.13 0.21 0.25 0.18 0.15 0.15 0.15 0.11 0.05 0.04 0.06 0.03 0.01 0.00 0.00 0.00 0.00 0.00 0.00 0.00 0.00 0.00 0.00 0.00 0.00 0.00 0.00 0.00
0.00 0.00 0.00 0.00 0.00 0.00 0.00 0.00 0.00 0.00 0.01 0.04 0.06 0.08 0.11 0.16 0.22 0.30 0.28 0.24 0.23 0.17 0.15 0.10 0.05 0.02 0.01 0.01 0.01 0.00 0.00 0.00 0.01 0.01 0.01 0.01 0.01 0.01 0.01 0.01 0.00 0.00 0.00
0.00 0.00 0.00 0.00 0.00 0.00 0.00 0.00 0.00 0.01 0.01 0.02 0.04 0.05 0.07 0.10 0.12 0.16 0.22 0.26 0.26 0.21 0.17 0.12 0.08 0.04 0.01 0.01 0.01 0.01 0.01 0.01 0.03 0.06 0.04 0.03 0.04 0.05 0.03 0.02 0.01 0.00 0.00
0.00 0.00 0.00 0.00 0.00 0.00 0.00 0.00 0.01 0.01 0.01 0.01 0.01 0.01 0.01 0.01 0.04 0.07 0.09 0.13 0.17 0.20 0.22 0.19 0.13 0.05 0.02 0.01 0.01 0.01 0.01 0.02 0.03 0.07 0.08 0.05 0.05 0.08 0.07 0.02 0.01 0.00 0.00
0.00 0.00 0.00 0.00 0.00 0.00 0.00 0.00 0.00 0.00 0.00 0.00 0.00 0.00 0.00 0.00 0.00 0.01 0.01 0.02 0.03 0.03 0.05 0.10 0.14 0.08 0.03 0.02 0.01 0.01 0.01 0.00 0.01 0.01 0.02 0.02 0.02 0.04 0.09 0.06 0.03 0.01 0.01
0.00 0.00 0.00 0.00 0.00 0.00 0.00 0.00 0.00 0.00 0.00 0.00 0.00 0.00 0.00 0.00 0.00 0.00 0.00 0.00 0.00 0.00 0.01 0.02 0.03 0.05 0.04 0.03 0.02 0.02 0.01 0.01 0.01 0.01 0.01 0.01 0.03 0.04 0.08 0.08 0.05 0.03 0.01
0.02 0.01 0.00 0.00 0.00 0.00 0.00 0.00 0.00 0.00 0.00 0.00 0.00 0.00 0.00 0.00 0.00 0.00 0.00 0.00 0.00 0.00 0.00 0.01 0.02 0.04 0.06 0.06 0.05 0.03 0.02 0.01 0.02 0.04 0.03 0.03 0.02 0.02 0.05 0.08 0.05 0.04 0.04
0.03 0.01 0.00 0.00 0.00 0.00 0.00 0.00 0.00 0.00 0.00 0.00 0.00 0.00 0.00 0.00 0.00 0.00 0.00 0.00 0.00 0.00 0.00 0.00 0.00 0.00 0.01 0.01 0.01 0.01 0.01 0.01 0.01 0.02 0.03 0.02 0.02 0.02 0.02 0.05 0.04 0.04 0.05
MSLP
1016.84 1016.83 1016.81 1016.77 1016.75 1016.75 1016.78 1016.85 1016.94 1017.05 1017.16 1017.25 1017.31 1017.35 1017.34 1017.31 1017.24 1017.15 1017.03 1016.88 1016.73 1016.56 1016.41 1016.28 1016.20 1016.17 1016.22 1016.34 1016.54 1016.81 1017.15 1017.53 1017.95 1018.38 1018.83 1019.27 1019.70 1020.10 1020.46 1020.78 1021.05 1021.27 1021.44
1016.71 1016.69 1016.64 1016.61 1016.59 1016.61 1016.68 1016.77 1016.90 1017.03 1017.15 1017.25 1017.31 1017.33 1017.30 1017.22 1017.10 1016.96 1016.79 1016.60 1016.41 1016.22 1016.05 1015.91 1015.80 1015.75 1015.76 1015.84 1016.00 1016.23 1016.54 1016.92 1017.36 1017.85 1018.36 1018.90 1019.42 1019.91 1020.35 1020.73 1021.04 1021.29 1021.48
1016.50 1016.47 1016.44 1016.42 1016.45 1016.51 1016.61 1016.75 1016.91 1017.07 1017.20 1017.31 1017.36 1017.35 1017.28 1017.17 1017.00 1016.81 1016.59 1016.36 1016.14 1015.92 1015.72 1015.55 1015.41 1015.32 1015.28 1015.31 1015.41 1015.59 1015.86 1016.23 1016.68 1017.21 1017.79 1018.40 1019.02 1019.60 1020.13 1020.58 1020.95 1021.24 1021.45
1016.22 1016.20 1016.20 1016.23 1016.30 1016.42 1016.57 1016.75 1016.94 1017.12 1017.26 1017.36 1017.40 1017.37 1017.28 1017.13 1016.93 1016.69 1016.44 1016.18 1015.91 1015.66 1015.43 1015.22 1015.04 1014.89 1014.79 1014.75 1014.79 1014.92 1015.15 1015.49 1015.95 1016.51 1017.15 1017.83 1018.53 1019.20 1019.81 1020.33 1020.76 1021.10 1021.35
1015.88 1015.90 1015.95 1016.03 1016.16 1016.33 1016.52 1016.74 1016.95 1017.14 1017.29 1017.38 1017.41 1017.37 1017.26 1017.09 1016.87 1016.62 1016.34 1016.05 1015.76 1015.47 1015.19 1014.93 1014.70 1014.49 1014.32 1014.22 1014.19 1014.26 1014.46 1014.78 1015.24 1015.82 1016.50 1017.24 1018.00 1018.74 1019.42 1020.00 1020.49 1020.88 1021.18
1015.53 1015.59 1015.69 1015.82 1016.00 1016.22 1016.45 1016.68 1016.91 1017.10 1017.24 1017.33 1017.36 1017.32 1017.22 1017.06 1016.85 1016.59 1016.31 1016.00 1015.68 1015.36 1015.04 1014.73 1014.43 1014.15 1013.92 1013.75 1013.67 1013.70 1013.87 1014.17 1014.63 1015.23 1015.94 1016.71 1017.51 1018.30 1019.02 1019.65 1020.18 1020.60 1020.94
1015.20 1015.29 1015.43 1015.61 1015.83 1016.08 1016.33 1016.57 1016.79 1016.98 1017.12 1017.21 1017.25 1017.23 1017.16 1017.03 1016.85 1016.62 1016.35 1016.05 1015.72 1015.36 1015.00 1014.63 1014.27 1013.94 1013.65 1013.43 1013.31 1013.31 1013.45 1013.75 1014.22 1014.82 1015.54 1016.32 1017.14 1017.93 1018.67 1019.32 1019.86 1020.30 1020.66
1014.90 1015.02 1015.19 1015.40 1015.65 1015.91 1016.16 1016.40 1016.61 1016.79 1016.93 1017.03 1017.09 1017.11 1017.09 1017.02 1016.90 1016.71 1016.48 1016.19 1015.85 1015.47 1015.07 1014.66 1014.25 1013.87 1013.54 1013.29 1013.14 1013.13 1013.27 1013.58 1014.04 1014.64 1015.35 1016.13 1016.93 1017.70 1018.42 1019.04 1019.58 1020.01 1020.37
1014.66 1014.79 1014.98 1015.20 1015.46 1015.71 1015.96 1016.18 1016.38 1016.54 1016.68 1016.81 1016.91 1016.98 1017.02 1017.03 1016.97 1016.85 1016.65 1016.39 1016.06 1015.67 1015.25 1014.80 1014.36 1013.95 1013.59 1013.34 1013.19 1013.19 1013.34 1013.65 1014.12 1014.71 1015.40 1016.14 1016.89 1017.61 1018.27 1018.85 1019.34 1019.75 1020.08
1014.47 1014.61 1014.80 1015.03 1015.27 1015.51 1015.73 1015.93 1016.10 1016.26 1016.41 1016.55 1016.70 1016.83 1016.94 1017.02 1017.04 1016.98 1016.83 1016.60 1016.29 1015.91 1015.47 1015.01 1014.56 1014.14 1013.79 1013.55 1013.42 1013.44 1013.61 1013.93 1014.39 1014.96 1015.61 1016.30 1016.98 1017.63 1018.22 1018.73 1019.15 1019.51 1019.80
1014.36 1014.49 1014.67 1014.88 1015.10 1015.31 1015.50 1015.67 1015.82 1015.96 1016.11 1016.28 1016.46 1016.64 1016.82 1016.96 1017.04 1017.04 1016.95 1016.76 1016.47 1016.10 1015.68 1015.23 1014.79 1014.40 1014.07 1013.85 1013.76 1013.80 1013.99 1014.32 1014.76 1015.31 1015.90 1016.52 1017.13 1017.69 1018.19 1018.62 1018.98 1019.28 1019.52
1014.33 1014.45 1014.61 1014.79 1014.98 1015.14 1015.29 1015.42 1015.53 1015.66 1015.80 1015.97 1016.18 1016.39 1016.61 1016.80 1016.93 1016.98 1016.93 1016.78 1016.53 1016.20 1015.81 1015.40 1015.00 1014.65 1014.37 1014.19 1014.13 1014.20 1014.40 1014.72 1015.14 1015.63 1016.17 1016.72 1017.24 1017.72 1018.14 1018.49 1018.78 1019.03 1019.23
1014.39 1014.49 1014.63 1014.77 1014.91 1015.02 1015.11 1015.19 1015.26 1015.35 1015.47 1015.63 1015.83 1016.06 1016.29 1016.50 1016.66 1016.74 1016.73 1016.62 1016.42 1016.15 1015.82 1015.47 1015.14 1014.85 1014.62 1014.49 1014.47 1014.55 1014.75 1015.04 1015.42 1015.86 1016.33 1016.79 1017.23 1017.64 1017.99 1018.28 1018.52 1018.72 1018.90
1014.54 1014.62 1014.72 1014.82 1014.90 1014.96 1014.99 1015.00 1015.02 1015.06 1015.14 1015.27 1015.44 1015.65 1015.87 1016.07 1016.24 1016.33 1016.35 1016.29 1016.15 1015.94 1015.69 1015.43 1015.18 1014.96 1014.81 1014.72 1014.72 1014.81 1014.99 1015.24 1015.56 1015.93 1016.31 1016.70 1017.07 1017.41 1017.70 1017.95 1018.17 1018.35 1018.51
1014.78 1014.84 1014.90 1014.95 1014.97 1014.95 1014.92 1014.86 1014.82 1014.80 1014.83 1014.90 1015.03 1015.19 1015.37 1015.55 1015.69 1015.79 1015.83 1015.81 1015.73 1015.61 1015.46 1015.30 1015.14 1015.01 1014.92 1014.87 1014.89 1014.96 1015.10 1015.30 1015.55 1015.83 1016.14 1016.45 1016.75 1017.03 1017.29 1017.51 1017.71 1017.89 1018.04
1015.09 1015.13 1015.15 1015.14 1015.09 1015.01 1014.91 1014.79 1014.68 1014.60 1014.57 1014.58 1014.64 1014.75 1014.87 1014.99 1015.11 1015.20 1015.25 1015.27 1015.26 1015.22 1015.17 1015.11 1015.06 1015.01 1014.98 1014.97 1014.99 1015.04 1015.13 1015.25 1015.41 1015.61 1015.83 1016.06 1016.31 1016.55 1016.77 1016.98 1017.18 1017.35 1017.51
1015.44 1015.45 1015.43 1015.36 1015.26 1015.13 1014.96 1014.79 1014.63 1014.50 1014.41 1014.36 1014.36 1014.40 1014.45 1014.52 1014.60 1014.66 1014.72 1014.77 1014.81 1014.86 1014.90 1014.93 1014.97 1015.00 1015.02 1015.04 1015.05 1015.07 1015.10 1015.14 1015.22 1015.32 1015.46 1015.63 1015.81 1016.01 1016.21 1016.40 1016.59 1016.76 1016.92
1015.79 1015.77 1015.70 1015.60 1015.45 1015.27 1015.08 1014.87 1014.68 1014.52 1014.39 1014.30 1014.24 1014.22 1014.21 1014.22 1014.24 1014.28 1014.32 1014.39 1014.47 1014.57 1014.69 1014.81 1014.92 1015.01 1015.07 1015.11 1015.11 1015.09 1015.06 1015.04 1015.03 1015.06 1015.12 1015.21 1015.34 1015.50 1015.67 1015.84 1016.01 1016.17 1016.31
1016.10 1016.04 1015.95 1015.81 1015.64 1015.44 1015.24 1015.03 1014.84 1014.67 1014.53 1014.42 1014.32 1014.25 1014.19 1014.14 1014.11 1014.10 1014.13 1014.19 1014.29 1014.42 1014.58 1014.75 1014.91 1015.05 1015.15 1015.19 1015.18 1015.13 1015.06 1014.97 1014.90 1014.85 1014.85 1014.88 1014.96 1015.06 1015.19 1015.33 1015.47 1015.60 1015.72
1016.34 1016.25 1016.13 1015.98 1015.80 1015.62 1015.43 1015.25 1015.09 1014.94 1014.82 1014.71 1014.60 1014.50 1014.40 1014.30 1014.22 1014.16 1014.15 1014.18 1014.27 1014.41 1014.58 1014.77 1014.96 1015.12 1015.23 1015.27 1015.26 1015.19 1015.08 1014.96 1014.84 1014.74 1014.68 1014.67 1014.69 1014.75 1014.83 1014.93 1015.02 1015.11 1015.18
1016.49 1016.38 1016.24 1016.10 1015.94 1015.79 1015.64 1015.51 1015.40 1015.31 1015.22 1015.14 1015.04 1014.93 1014.80 1014.66 1014.53 1014.43 1014.36 1014.35 1014.40 1014.51 1014.67 1014.85 1015.04 1015.20 1015.31 1015.35 1015.34 1015.26 1015.14 1015.00 1014.85 1014.73 1014.63 1014.58 1014.56 1014.57 1014.60 1014.64 1014.68 1014.71 1014.73
1016.58 1016.45 1016.32 1016.18 1016.06 1015.95 1015.86 1015.79 1015.75 1015.72 1015.69 1015.64 1015.57 1015.47 1015.33 1015.17 1015.00 1014.84 1014.73 1014.66 1014.66 1014.72 1014.83 1014.98 1015.14 1015.28 1015.38 1015.43 1015.41 1015.34 1015.22 1015.08 1014.93 1014.79 1014.68 1014.60 1014.55 1014.51 1014.49 1014.48 1014.45 1014.42 1014.39
1016.64 1016.51 1016.38 1016.27 1016.17 1016.11 1016.07 1016.07 1016.09 1016.13 1016.15 1016.15 1016.11 1016.03 1015.90 1015.73 1015.53 1015.34 1015.17 1015.05 1014.99 1014.99 1015.05 1015.15 1015.27 1015.38 1015.46 1015.50 1015.49 1015.42 1015.32 1015.19 1015.05 1014.92 1014.81 1014.71 1014.63 1014.56 1014.50 1014.43 1014.35 1014.27 1014.18
1016.72 1016.59 1016.48 1016.38 1016.31 1016.28 1016.29 1016.34 1016.40 1016.49 1016.56 1016.60 1016.60 1016.54 1016.42 1016.26 1016.06 1015.84 1015.64 1015.48 1015.37 1015.31 1015.32 1015.36 1015.43 1015.51 1015.57 1015.60 1015.59 1015.53 1015.45 1015.34 1015.22 1015.10 1014.99 1014.89 1014.80 1014.70 1014.60 1014.49 1014.37 1014.24 1014.11
1016.87 1016.75 1016.64 1016.55 1016.50 1016.48 1016.51 1016.57 1016.66 1016.77 1016.87 1016.94 1016.97 1016.94 1016.85 1016.71 1016.52 1016.31 1016.10 1015.91 1015.77 1015.68 1015.63 1015.63 1015.66 1015.70 1015.73 1015.75 1015.74 1015.69 1015.62 1015.54 1015.43 1015.33 1015.23 1015.12 1015.02 1014.91 1014.78 1014.64 1014.49 1014.33 1014.17
1017.11 1016.99 1016.89 1016.80 1016.74 1016.71 1016.72 1016.78 1016.86 1016.97 1017.07 1017.16 1017.21 1017.21 1017.15 1017.04 1016.88 1016.70 1016.50 1016.32 1016.17 1016.06 1015.99 1015.95 1015.95 1015.96 1015.97 1015.97 1015.95 1015.91 1015.85 1015.78 1015.69 1015.60 1015.50 1015.40 1015.28 1015.16 1015.02 1014.87 1014.69 1014.51 1014.33
Thickness
5763 5764 5762 5760 5759 5758 5755 5752 5753 5752 5751 5749 5747 5746 5745 5744 5743 5742 5741 5741 5740 5740 5739 5739 5737 5736 5734 5731 5728 5725 5722 5719 5715 5711 5708 5706 5703 5699 5695 5693 5691 5690 5690
5761 5761 5761 5759 5758 5757 5755 5752 5752 5751 5749 5748 5745 5744 5743 5742 5741 5740 5739 5738 5738 5738 5739 5739 5738 5736 5735 5734 5731 5727 5724 5720 5716 5712 5708 5705 5702 5698 5695 5692 5689 5687 5687
5759 5759 5759 5759 5758 5756 5752 5750 5749 5749 5746 5745 5743 5741 5740 5740 5740 5739 5738 5736 5736 5736 5736 5737 5737 5737 5736 5736 5733 5729 5725 5721 5717 5713 5708 5704 5701 5697 5694 5690 5687 5684 5683
5758 5756 5756 5757 5756 5753 5750 5747 5746 5744 5742 5740 5739 5737 5736 5736 5737 5738 5737 5735 5734 5734 5734 5735 5735 5736 5736 5736 5734 5731 5726 5722 5717 5713 5709 5704 5700 5696 5692 5688 5684 5681 5680
5755 5753 5753 5753 5752 5750 5747 5745 5744 5741 5738 5736 5734 5733 5732 5732 5734 5735 5735 5734 5734 5733 5732 5733 5733 5734 5736 5736 5736 5734 5729 5723 5718 5714 5710 5705 5699 5693 5688 5685 5683 5679 5676
5752 5750 5749 5749 5747 5745 5743 5741 5740 5738 5736 5734 5731 5729 5729 5730 5731 5732 5732 5732 5731 5730 5730 5730 5731 5732 5733 5735 5736 5735 5731 5726 5720 5715 5711 5705 5697 5690 5685 5683 5681 5676 5673
5749 5746 5745 5744 5743 5741 5740 5738 5736 5734 5732 5731 5726 5724 5726 5728 5728 5728 5728 5728 5727 5727 5727 5727 5727 5728 5730 5731 5733 5733 5731 5728 5722 5716 5710 5703 5694 5687 5682 5681 5678 5674 5671
5744 5742 5741 5740 5738 5736 5735 5733 5731 5729 5728 5726 5721 5715 5714 5718 5722 5724 5724 5724 5723 5724 5725 5724 5723 5723 5725 5728 5729 5729 5728 5726 5722 5715 5707 5699 5691 5685 5681 5678 5675 5672 5669
5739 5738 5737 5736 5734 5732 5730 5729 5728 5724 5722 5721 5717 5712 5707 5706 5709 5717 5720 5719 5719 5720 5721 5720 5718 5718 5720 5723 5725 5724 5723 5720 5717 5710 5701 5693 5687 5682 5678 5675 5672 5669 5666
5733 5732 5732 5731 5730 5728 5727 5726 5725 5722 5719 5715 5712 5710 5709 5707 5703 5704 5712 5713 5714 5715 5716 5715 5713 5713 5715 5718 5719 5719 5717 5714 5710 5704 5696 5689 5684 5679 5674 5671 5668 5664 5661
5728 5726 5726 5725 5724 5723 5723 5722 5720 5718 5716 5713 5709 5707 5705 5703 5701 5697 5698 5703 5706 5710 5711 5710 5709 5708 5710 5712 5714 5714 5711 5707 5702 5696 5690 5684 5680 5675 5671 5667 5662 5659 5657
5721 5719 5718 5717 5717 5717 5717 5717 5716 5714 5713 5710 5706 5704 5703 5700 5698 5695 5693 5694 5696 5703 5706 5706 5704 5703 5704 5706 5708 5706 5703 5699 5694 5688 5683 5679 5676 5672 5667 5662 5658 5656 5655
5711 5711 5711 5709 5709 5709 5709 5709 5709 5708 5708 5706 5704 5702 5701 5701 5699 5696 5692 5690 5691 5696 5699 5701 5700 5699 5699 5699 5698 5697 5693 5690 5685 5681 5677 5674 5671 5668 5664 5661 5658 5657 5657
5701 5702 5702 5701 5701 5701 5702 5702 5701 5701 5701 5701 5699 5698 5697 5697 5696 5694 5690 5687 5686 5689 5692 5693 5695 5695 5694 5693 5690 5688 5685 5682 5679 5676 5673 5671 5669 5667 5665 5663 5662 5661 5661
5692 5692 5692 5692 5692 5692 5692 5693 5693 5694 5695 5695 5694 5693 5692 5692 5692 5692 5689 5687 5684 5682 5683 5687 5688 5690 5690 5688 5685 5683 5681 5677 5675 5672 5671 5670 5669 5669 5668 5667 5667 5667 5667
5682 5682 5681 5681 5682 5681 5682 5684 5685 5686 5687 5688 5688 5688 5688 5687 5687 5688 5687 5686 5684 5682 5680 5683 5684 5686 5687 5685 5682 5681 5680 5677 5674 5672 5671 5671 5671 5672 5673 5672 5672 5672 5672
5670 5670 5671 5671 5672 5672 5673 5675 5677 5678 5679 5680 5681 5682 5683 5683 5682 5684 5684 5683 5682 5681 5678 5680 5681 5682 5683 5683 5681 5680 5680 5678 5676 5676 5675 5675 5675 5676 5676 5676 5676 5676 5676
5658 5660 5662 5662 5663 5664 5665 5667 5669 5670 5670 5671 5672 5675 5677 5678 5678 5679 5681 5681 5680 5679 5678 5676 5677 5677 5678 5680 5679 5678 5678 5678 5678 5679 5679 5679 5679 5680 5680 5680 5680 5679 5679
5648 5651 5653 5654 5655 5656 5657 5659 5660 5661 5660 5661 5663 5666 5668 5671 5672 5674 5676 5677 5676 5675 5675 5674 5673 5672 5674 5675 5675 5674 5675 5676 5679 5681 5682 5682 5682 5683 5682 5683 5682 5682 5681
5639 5641 5642 5644 5646 5648 5650 5652 5653 5652 5651 5651 5653 5655 5658 5661 5665 5668 5670 5671 5670 5669 5669 5669 5667 5668 5669 5670 5670 5670 5670 5672 5675 5679 5681 5681 5682 5682 5683 5684 5684 5684 5683
5629 5631 5632 5633 5635 5638 5641 5644 5644 5642 5641 5640 5641 5643 5646 5651 5655 5659 5662 5663 5664 5663 5662 5661 5660 5661 5662 5664 5664 5664 5665 5667 5670 5673 5676 5677 5678 5679 5680 5682 5683 5685 5685
5618 5621 5622 5622 5622 5625 5629 5632 5633 5631 5630 5630 5630 5632 5636 5640 5645 5648 5651 5654 5656 5656 5656 5655 5653 5653 5655 5658 5660 5660 5661 5663 5664 5667 5669 5670 5672 5673 5674 5675 5678 5682 5684
5607 5609 5610 5610 5610 5613 5616 5619 5620 5620 5619 5618 5619 5621 5624 5627 5633 5638 5641 5643 5645 5646 5648 5649 5647 5647 5648 5650 5654 5656 5656 5658 5659 5662 5663 5664 5666 5667 5668 5669 5672 5675 5679
5594 5597 5599 5598 5599 5601 5604 5606 5607 5608 5609 5609 5610 5611 5614 5616 5621 5626 5629 5631 5632 5634 5636 5638 5640 5640 5641 5643 5646 5648 5649 5651 5654 5655 5656 5657 5658 5659 5661 5661 5664 5667 5671
5583 5586 5588 5587 5588 5590 5593 5596 5598 5598 5599 5599 5600 5603 5606 5608 5611 5615 5617 5618 5620 5622 5624 5627 5629 5632 5634 5636 5638 5640 5641 5644 5646 5648 5647 5648 5649 5651 5654 5655 5657 5660 5663
5568 5572 5576 5577 5578 5579 5582 5585 5588 5589 5589 5590 5591 5594 5597 5599 5601 5604 5606 5608 5609 5609 5612 5615 5618 5621 5624 5626 5629 5631 5633 5634 5635 5637 5638 5639 5641 5643 5645 5648 5651 5653 5656